カタログに戻る

DMSP 5D-2 F14 DEB

運用中PO
NORAD 62937·DEBRIS·🇺🇸 United States

打ち上げ Apr 4, 1997 から Vandenberg Space Force Base

Loading…

次のパス (今後24時間)

TLE

最新Source: Space-Track

元期: Sep 13, 2026, 17:58 UTC

1 62937U 97012H   26256.74903829  .00029180  00000-0  66319-2 0  9996
2 62937  99.0202 328.4662 0024913 144.4109 215.8754 14.55693018 90838

AllMySatでDMSP 5D-2 F14 DEBをリアルタイム追跡

Download on the App Store